Flag for Greece Weather past 2 weeks in Iráklion, Crete, Greece

Now
82 °F

Passing clouds.


Feels Like: 85 °F
Forecast: 76 / 90 °F
Wind: 13 mph from Northwest

Location: Heraklion Airport

Current Time: Aug 20, 2014 at 12:55:30 PM

Latest Report: Aug 20, 2014 at 12:20 PM


Visibility: N/A

Pressure: 29.98 "Hg

Humidity: 58%

Dew point: 66 °F

Location of IráklionLocation

Historic Weather in Iráklion — Graph

°F

Iráklion temperature yesterday

Maximum temperature yesterday: 82 °F (at 10:50 AM)
Minimum temperature yesterday: 77 °F (at 12:20 AM)
Average temperature yesterday: 79 °F

Past Weeks' High & Low Weather Summary

 TemperatureHumidityPressure
High90 °F (Aug 6, 12:50 PM)89% (Aug 5, 11:50 PM)29.98 "Hg (Aug 5, 11:50 PM)
Low70 °F (Aug 8, 5:50 AM)40% (Aug 16, 8:50 AM)29.65 "Hg (Aug 6, 3:50 PM)
Average81 °F67%29.81 "Hg
* Reported Aug 5 11:20 AM — Aug 20 11:20 AM, Iráklion, Weather by CustomWeather, © 2014

Note: Actual official high and low records may vary slightly from our data, if they occured in-between our weather recording intervals... More about our weather records

Advertising

Iráklion weather history for previous 24 hours

 ConditionsComfort  
Time TempWeatherWind HumidityBarometerVisibility
11:20 AM
Aug 20
81 °FPassing clouds.12 mph58%29.98 "HgN/A
10:50 AM81 °FPassing clouds.12 mph58%29.98 "HgN/A
10:20 AM81 °FPassing clouds.14 mph58%29.98 "HgN/A
9:50 AM81 °FPassing clouds.12 mph58%29.98 "HgN/A
9:20 AM79 °FPassing clouds.13 mph61%29.95 "HgN/A
8:50 AM79 °FPassing clouds.13 mph61%29.95 "HgN/A
8:20 AM77 °FPassing clouds.13 mph61%29.95 "HgN/A
7:50 AM77 °FPassing clouds.12 mph61%29.95 "HgN/A
7:20 AM75 °FPassing clouds.14 mph61%29.95 "HgN/A
6:50 AM75 °FPassing clouds.12 mph74%29.95 "HgN/A
6:20 AM75 °FPassing clouds.12 mph69%29.95 "HgN/A
5:50 AM75 °FPassing clouds.14 mph69%29.95 "HgN/A
4:50 AM75 °FPassing clouds.12 mph74%29.95 "HgN/A
3:50 AM75 °FPassing clouds.10 mph74%29.95 "HgN/A
2:50 AM77 °FPassing clouds.12 mph69%29.95 "HgN/A
1:50 AM77 °FPassing clouds.13 mph69%29.95 "HgN/A
1:20 AM77 °FPassing clouds.13 mph69%29.95 "HgN/A
12:50 AM77 °FPassing clouds.12 mph69%29.95 "HgN/A
12:20 AM77 °FPassing clouds.13 mph69%29.95 "HgN/A
11:50 PM
Aug 19
77 °FPassing clouds.12 mph69%29.95 "HgN/A
11:20 PM77 °FPassing clouds.14 mph65%29.98 "HgN/A
10:50 PM77 °FPassing clouds.14 mph65%29.98 "HgN/A
10:20 PM79 °FPassing clouds.13 mph61%29.95 "HgN/A
9:50 PM79 °FPassing clouds.13 mph61%29.95 "HgN/A
9:20 PM79 °FPassing clouds.16 mph61%29.92 "HgN/A
8:50 PM79 °FPassing clouds.16 mph61%29.92 "HgN/A
8:20 PM79 °FPassing clouds.16 mph65%29.92 "HgN/A
7:50 PM79 °FPassing clouds.16 mph65%29.92 "HgN/A
6:50 PM81 °FPassing clouds.17 mph62%29.92 "HgN/A
6:20 PM82 °FScattered clouds.17 mph58%29.92 "HgN/A
5:50 PM82 °FScattered clouds.18 mph58%29.92 "HgN/A
5:20 PM81 °FScattered clouds.18 mph66%29.92 "HgN/A
4:50 PM81 °FScattered clouds.18 mph66%29.92 "HgN/A
4:20 PM82 °FScattered clouds.20 mph58%29.92 "HgN/A
3:50 PM82 °FScattered clouds.17 mph58%29.92 "HgN/A
3:20 PM82 °FScattered clouds.20 mph58%29.92 "HgN/A
2:50 PM82 °FScattered clouds.20 mph58%29.92 "HgN/A
2:20 PM82 °FPassing clouds.20 mph58%29.92 "HgN/A
1:50 PM82 °FPassing clouds.21 mph58%29.92 "HgN/A
1:20 PM82 °FPassing clouds.22 mph55%29.92 "HgN/A
12:50 PM82 °FPassing clouds.23 mph55%29.92 "HgN/A
12:20 PM82 °FPassing clouds.22 mph55%29.92 "HgN/A
Weather by CustomWeather, © 2014

See weather overviewHow to use our weather pages